Simultaneous Nadir Overpasses (SNOs) Predictions

Prediction of SNOs between NOAA-19 and NPP Satellite Orbit:

Table of predicted SNOs for the next 14.0 days since TLE Epoch: 6/14/2019
Index Date (NOAA-19) Time (NOAA-19) Lat,Lon (NOAA-19) SZA (NOAA-19 ) Date (NPP) Time (NPP) Lat,Lon (NPP) SZA (NPP ) Distance(km) Time Diff (sec)
1 06/21/2019 00:14:28 -80.05, -43.00 120.95 06/21/2019 00:15:39 -80.03, -43.05 120.99 2.22 71
2 06/21/2019 01:05:23 80.04, 124.15 59.07 06/21/2019 01:06:25 80.05, 124.05 59.06 2.31 62
3 06/21/2019 01:56:29 -80.04, -68.55 120.94 06/21/2019 01:57:09 -80.03, -68.45 120.98 2.48 40
4 06/21/2019 02:47:24 80.03, 98.59 59.07 06/21/2019 02:47:55 80.05, 98.65 59.06 2.28 31
5 06/21/2019 03:38:29 -80.04, -94.11 120.94 06/21/2019 03:38:39 -80.06, -94.14 120.92 2.57 10
6 06/21/2019 04:29:23 80.05, 73.35 59.05 06/21/2019 04:29:24 80.05, 73.25 59.07 1.92 1
7 06/21/2019 05:20:29 -80.06,-119.34 120.96 06/21/2019 05:20:08 -80.03,-119.24 120.98 3.31 21
8 06/21/2019 06:11:24 80.05, 47.80 59.06 06/21/2019 06:10:54 80.06, 47.86 59.07 1.34 30
9 06/21/2019 07:02:30 -80.05,-144.90 120.95 06/21/2019 07:01:39 -80.07,-144.94 120.92 1.42 51
10 06/21/2019 07:53:24 80.07, 22.56 59.04 06/21/2019 07:52:24 80.06, 22.46 59.07 2.25 60




NCC Satellite Simultaneous Nadir Overpasses (SNOs) Prediction Service
